Location: Kra?nica
(53.4833°N, 14.6167°E)
Time: 17:58:19
(UTC+00:00)

CZ-2C R/B - Pass Details

Date: 23 May 2024
Orbit: 703 x 904 km, 98.2° (Epoch: 12 June)

Event Time Altitude Azimuth Distance (km) Brightness Sun altitude
Rises 01:33:38 0° 14° (NNE) 3,535 7.9 -8.7°
Reaches altitude 10° 01:36:03 10° 15° (NNE) 2,597 7.0 -8.4°
Maximum altitude 01:41:55 89° 285° (WNW) 911 3.4 -7.9°
Drops below altitude 10° 01:47:40 10° 198° (SSW) 2,549 5.1 -7.4°
Enters shadow 01:48:27 - 198° (SSW) 2,852 5.4 -7.3°
